Weather in Miroshkino

Russia / Orenburg Oblast     51°59′24″N   52°03′07″E
temp.,
°C
wind,
m/s
gust,
m/s
humid.,
%
clouds,
%
prec.,
mm/h
press.,
hPa
HPBL,
m
19 january, wed
wed1923:00−4s71394100 1.3 1019416
02:00−6s61495100 0.0 1020382
05:00−6s61396100 0.2 1020401
08:00−5s61395100 0.6 1020407
11:00−5sse61395100 0.6 1021408
14:00−5sse71494100 0.0 1021464
17:00−6sse61393100 0.0 1022439
20:00−7sse61295100 0.0 1022305
20 january, thu
thu2023:00−7sse51195100 0.1 1022317
02:00−7sse61294100 0.0 1022312
05:00−8sse51090100 0.1 1023256
08:00−10se51089100 0.0 1023207
11:00−12se4108823 0.0 1024182
14:00−11se49866 0.0 1023199
17:00−12ese48895 0.0 1022130
20:00−14ese379277 0.0 102393
21 january, fri
fri2123:00−13ese489572 0.0 1023118
02:00−14ese489777 0.0 1022107
05:00−14ese389891 0.1 1022110
08:00−12ese489667 0.1 1022150
11:00−12ese499494 0.1 1023170
14:00−10se4990100 0.0 1023226
17:00−10ese4990100 0.0 1023193
20:00−12se51089100 0.0 1023162
22 january, sat
sat2223:00−11se51086100 0.0 1023217
02:00−10se51088100 0.0 1023279
05:00−10se51093100 0.1 1023235
08:00−11se51090100 0.0 1023186
11:00−12se4109198 0.0 1024174
14:00−10se51093100 0.0 1025246
17:00−9se599492 0.0 1025214
20:00−12se5994100 0.0 1027142
23 january, sun
sun2323:00−12se4991100 0.0 1028148
02:00−14ese4990100 0.0 1028114
05:00−14se4991100 0.0 1029130
08:00−14ese4892100 0.0 1030125
11:00−12ese4991100 0.0 1031179
14:00−9ese41090100 0.0 1031234
17:00−9ese51092100 0.0 1032232
20:00−11e499398 0.0 1033140